Location: Poughquag
(41.6090°N, 73.6820°W)
Time: 08:19:30
(UTC-05:00)

Altair - Pass Details

Date: 06 December 2023
Orbit: 1501 x 1682 km, 47.2° (Epoch: 02 March)

Event Time Altitude Azimuth Distance (km) Brightness Sun altitude
Rises 13:48:58 0° 297° (WNW) 4,705 10.1 19.8°
Reaches altitude 10° 13:52:05 10° 294° (WNW) 3,701 9.7 19.5°
Maximum altitude 14:01:12 65° 216° (SW) 1,636 8.5 18.6°
Drops below altitude 10° 14:10:11 10° 137° (SE) 3,645 9.7 17.7°
Sets 14:13:14 0° 134° (SE) 4,630 10.1 17.3°
